Location: Praha
(50.0830°N, 14.4670°E)
Time: 10:47:32
(UTC+02:00)

ISS - Pass Details

Date: 18 May 2019
Orbit: 407 x 410 km, 51.6° (Epoch: 21 May)

Event Time Altitude Azimuth Distance (km) Brightness Sun altitude
Rises 02:56:05 0° 286° (WNW) 2,339 -0.1 -15.8°
Reaches altitude 10° 02:58:11 10° 285° (WNW) 1,476 -1.1 -15.6°
Maximum altitude 03:01:29 76° 199° (SSW) 426 -4.0 -15.3°
Drops below altitude 10° 03:04:47 10° 114° (ESE) 1,473 -0.9 -15.1°
Sets 03:06:52 0° 113° (ESE) 2,332 0.1 -14.9°
